N4DRV Weather Reports


time (UTC)temp
F
wind
direction
speed
knots
gust
knots
rain 1hr
in
rain 24hr
in
rain mn
in
humidity
%
barometer
mb
20260906162505 88 112 0.0 0.0 0.00 0.38 0.00 74 1016.3
20260906161504 87 122 0.0 0.0 0.00 0.38 0.00 76 1016.4
20260906160527 85 154 0.0 0.0 0.00 0.38 0.00 81 1016.6
20260906155500 83 34 0.0 0.0 0.00 0.38 0.00 86 1016.5
20260906154459 82 34 0.0 0.0 0.00 0.38 0.00 86 1016.7
20260906153502 81 34 0.0 0.0 0.00 0.38 0.00 89 1016.7
20260906152459 80 34 0.0 0.0 0.00 0.38 0.00 91 1016.7
20260906151458 80 34 0.0 0.0 0.00 0.38 0.00 91 1016.8
20260906150521 79 34 0.0 0.0 0.00 0.38 0.00 93 1016.8
20260906145515 79 34 0.0 0.0 0.00 0.38 0.00 93 1016.7
20260906144452 79 34 0.0 0.0 0.00 0.38 0.00 95 1016.6
20260906143451 78 34 0.0 0.0 0.00 0.38 0.00 96 1016.7
20260906142513 77 34 0.0 0.0 0.00 0.38 0.00 96 1016.8
20260906141450 77 34 0.0 0.0 0.00 0.38 0.00 97 1016.7
20260906140529 77 34 0.0 0.0 0.00 0.38 0.00 98 1016.6
20260906135506 76 34 0.0 0.0 0.00 0.38 0.00 98 1016.6
20260906134504 75 34 0.0 0.0 0.00 0.38 0.00 98 1016.5
20260906133502 75 34 0.0 0.0 0.00 0.38 0.00 100 1016.6
20260906132500 74 34 0.0 0.0 0.00 0.38 0.00 100 1016.7
20260906131502 74 34 0.0 0.0 0.00 0.38 0.00 100 1016.8
20260906130541 73 34 0.0 0.0 0.00 0.38 0.00 100 1016.7
20260906125453 73 34 0.0 0.0 0.00 0.38 0.00 100 1016.6
20260906124454 73 34 0.0 0.0 0.00 0.38 0.00 100 1016.5
20260906123454 72 34 0.0 0.0 0.00 0.38 0.00 100 1016.4
20260906122451 72 34 0.0 0.0 0.00 0.38 0.00 100 1016.3
20260906121452 71 34 0.0 0.0 0.00 0.38 0.00 100 1016.3
20260906120531 71 34 0.0 0.0 0.00 0.38 0.00 100 1016.3
20260906115505 71 34 0.0 0.0 0.00 0.38 0.00 100 1016.2
20260906114501 71 34 0.0 0.0 0.00 0.38 0.00 100 1016.1
20260906113505 71 34 0.0 0.0 0.00 0.38 0.00 100 1016.1
20260906112502 71 34 0.0 0.0 0.00 0.38 0.00 100 1016.1
20260906111500 71 34 0.0 0.0 0.00 0.38 0.00 100 1016.2
20260906110544 71 34 0.0 0.0 0.00 0.38 0.00 100 1016.2
20260906105456 71 34 0.0 0.0 0.00 0.38 0.00 100 1016.1
20260906104453 71 34 0.0 0.0 0.00 0.38 0.00 100 1016.2
20260906103452 71 34 0.0 0.0 0.00 0.38 0.00 100 1016.2
20260906102453 71 34 0.0 0.0 0.00 0.38 0.00 100 1015.9
20260906101450 71 34 0.0 0.0 0.00 0.38 0.00 100 1016.1
20260906100530 71 34 0.0 0.0 0.00 0.38 0.00 100 1015.9
20260906095507 71 34 0.0 0.0 0.00 0.38 0.00 100 1015.9
20260906094505 71 34 0.0 0.0 0.00 0.38 0.00 100 1015.9
20260906093505 71 34 0.0 0.0 0.00 0.38 0.00 100 1015.9
20260906092506 71 34 0.0 0.0 0.00 0.38 0.00 100 1016.0
20260906091503 71 34 0.0 0.0 0.00 0.38 0.00 100 1015.8
20260906090523 71 34 0.0 0.0 0.00 0.38 0.00 100 1015.9
20260906085456 70 34 0.0 0.0 0.00 0.38 0.00 100 1015.9
20260906084458 70 34 0.0 0.0 0.00 0.38 0.00 100 1015.9
20260906083458 70 34 0.0 0.0 0.00 0.38 0.00 100 1015.9
20260906082455 70 34 0.0 0.0 0.00 0.38 0.00 100 1015.9
20260906081457 70 34 0.0 0.0 0.00 0.38 0.00 100 1015.8
20260906080537 70 34 0.0 0.0 0.00 0.38 0.00 100 1015.8
20260906075449 70 34 0.0 0.0 0.00 0.38 0.00 100 1015.7
20260906074451 70 34 0.0 0.0 0.00 0.38 0.00 100 1015.8
20260906073451 70 34 0.0 0.0 0.00 0.38 0.00 100 1015.8
20260906072448 71 34 0.0 0.0 0.00 0.38 0.00 100 1015.7
20260906071505 71 34 0.0 0.0 0.00 0.38 0.00 100 1015.8
20260906070529 71 34 0.0 0.0 0.00 0.38 0.00 100 1015.9
20260906065501 71 34 0.0 0.0 0.00 0.38 0.00 100 1015.7
20260906064459 71 34 0.0 0.0 0.00 0.38 0.00 100 1015.9
20260906063523 71 34 0.0 0.0 0.00 0.38 0.00 100 1015.9
20260906062459 71 34 0.0 0.0 0.00 0.38 0.00 100 1015.9
20260906061457 71 34 0.0 0.0 0.00 0.38 0.00 100 1016.1
20260906060516 71 34 0.0 0.0 0.00 0.38 0.00 100 1016.2
20260906055515 71 34 0.0 0.0 0.00 0.38 0.00 100 1016.5
20260906054511 71 34 0.0 0.0 0.00 0.38 0.00 100 1016.5
20260906053451 71 34 0.0 0.0 0.00 0.38 0.00 100 1016.7
20260906052452 72 34 0.0 0.0 0.00 0.38 0.00 100 1016.7
20260906051449 72 34 0.0 0.0 0.00 0.38 0.00 100 1016.8
20260906050528 72 34 0.0 0.0 0.00 0.38 0.00 100 1016.8
20260906045501 72 34 0.0 0.0 0.00 0.38 0.00 100 1016.8
20260906044524 72 34 0.0 0.0 0.00 0.38 0.00 99 1016.7
20260906043523 72 34 0.0 0.0 0.00 0.38 0.00 99 1016.6
20260906042459 72 34 0.0 0.0 0.00 0.38 0.00 99 1016.6
20260906041458 72 34 0.0 0.0 0.00 0.38 0.00 100 1016.6
20260906040541 72 34 0.0 0.0 0.00 0.38 0.00 100 1016.7
20260906035453 72 34 0.0 0.0 0.00 0.38 0.38 100 1016.9
20260906034451 72 34 0.0 0.0 0.00 0.38 0.38 100 1016.7
20260906033515 72 34 0.0 0.0 0.00 0.38 0.38 99 1016.8
20260906032452 72 34 0.0 0.0 0.00 0.38 0.38 99 1016.9
20260906031511 72 34 0.0 0.0 0.00 0.38 0.38 99 1017.0
20260906030530 72 34 0.0 0.0 0.00 0.38 0.38 99 1017.2
20260906025508 72 34 0.0 0.0 0.00 0.38 0.38 99 1017.5
20260906024505 72 34 0.0 0.0 0.00 0.38 0.38 99 1017.4
20260906023505 72 32 0.0 0.0 0.00 0.38 0.38 99 1017.3
20260906022506 72 32 0.0 0.0 0.00 0.38 0.38 99 1017.0
20260906021505 73 32 0.0 0.0 0.00 0.38 0.38 99 1017.1
20260906020543 73 32 0.0 0.0 0.00 0.38 0.38 99 1017.1
20260906015456 73 32 0.0 0.0 0.00 0.38 0.38 99 1016.9
20260906014458 73 32 0.0 0.0 0.00 0.38 0.38 99 1016.9
20260906013518 73 32 0.0 0.0 0.00 0.38 0.38 99 1017.3
20260906012515 73 32 0.0 0.0 0.00 0.38 0.38 99 1017.2
20260906011457 73 73 0.0 2.6 0.00 0.38 0.38 99 1016.9
20260906010537 73 204 1.7 3.5 0.00 0.38 0.38 99 1016.8
20260906005510 73 161 0.0 0.0 0.00 0.38 0.38 99 1015.6
20260906004508 73 161 0.0 0.0 0.00 0.38 0.38 99 1015.6
20260906003511 73 161 0.0 0.0 0.00 0.38 0.38 99 1015.6
20260906002509 73 161 0.0 0.0 0.00 0.38 0.38 99 1015.4
20260906001527 73 161 0.0 0.0 0.00 0.38 0.38 99 1015.4
20260906000530 73 161 0.0 0.0 0.00 0.38 0.38 98 1015.0
20260905235523 73 161 0.0 0.0 0.00 0.38 0.38 98 1014.5
20260905234500 74 161 0.0 0.0 0.00 0.38 0.38 98 1014.5
20260905233519 74 161 0.0 0.0 0.00 0.38 0.38 98 1014.5
20260905232500 74 161 0.0 0.0 0.00 0.38 0.38 98 1014.7
20260905231519 74 161 0.0 0.0 0.00 0.38 0.38 98 1015.1
20260905230538 74 161 0.0 0.0 0.14 0.38 0.38 97 1015.2
20260905225516 74 168 0.0 0.0 0.30 0.38 0.38 97 1015.3
20260905224513 74 168 0.0 5.2 0.31 0.38 0.38 96 1015.8
20260905223513 74 221 1.7 9.6 0.38 0.38 0.38 95 1015.9
20260905222515 74 122 0.9 2.6 0.38 0.38 0.38 96 1016.2
20260905221513 75 114 0.9 5.2 0.38 0.38 0.38 93 1015.8
20260905220533 78 73 7.8 20.0 0.24 0.24 0.24 88 1017.7
20260905215526 81 294 5.2 7.8 0.08 0.08 0.08 83 1014.6
20260905214507 87 280 1.7 7.0 0.07 0.07 0.07 74 1014.6
20260905213507 94 346 1.7 3.5 0.00 0.00 0.00 57 1014.3
20260905212504 95 94 1.7 2.6 0.00 0.00 0.00 59 1014.0
20260905211507 96 94 0.9 1.7 0.00 0.00 0.00 54 1013.9
20260905210546 97 94 0.9 2.6 0.00 0.00 0.00 52 1014.0
20260905205519 96 95 0.0 2.6 0.00 0.00 0.00 55 1014.2
20260905204517 96 89 0.9 4.3 0.00 0.00 0.00 54 1014.2
20260905203520 96 85 0.9 5.2 0.00 0.00 0.00 54 1014.4
20260905202518 96 108 0.0 3.5 0.00 0.00 0.00 55 1014.5
20260905201516 96 117 0.9 5.2 0.00 0.00 0.00 54 1014.9
20260905200540 96 138 0.9 4.3 0.00 0.00 0.00 54 1014.9
20260905195513 96 4 0.9 3.5 0.00 0.00 0.00 54 1015.0
20260905194511 95 107 0.9 2.6 0.00 0.00 0.00 55 1015.1
20260905193514 95 178 0.0 3.5 0.00 0.00 0.00 55 1015.1
20260905192533 95 109 0.9 3.5 0.00 0.00 0.00 58 1015.3
20260905191530 95 326 0.9 2.6 0.00 0.00 0.00 56 1015.4
20260905190548 95 335 0.0 1.7 0.00 0.00 0.00 56 1015.5
20260905185526 95 322 0.0 0.9 0.00 0.00 0.00 56 1015.7
20260905184524 95 322 0.0 2.6 0.00 0.00 0.00 55 1015.8
20260905183524 95 97 0.9 1.7 0.00 0.00 0.00 56 1015.8
20260905182542 94 287 0.0 2.6 0.00 0.00 0.00 56 1016.1
20260905181523 95 289 1.7 2.6 0.00 0.00 0.00 57 1016.1
20260905180543 96 297 1.7 3.5 0.00 0.00 0.00 57 1016.2
20260905175516 96 238 0.0 4.3 0.00 0.00 0.00 56 1016.2
20260905174518 96 195 0.0 3.5 0.00 0.00 0.00 57 1016.5
20260905173517 96 52 0.9 4.3 0.00 0.00 0.00 57 1016.6
20260905172514 97 175 1.7 5.2 0.00 0.00 0.00 60 1016.7
20260905171537 96 56 0.9 3.5 0.00 0.00 0.00 57 1016.8
20260905170557 96 159 0.9 2.6 0.00 0.00 0.00 63 1017.0
20260905165529 95 232 0.9 2.6 0.00 0.00 0.00 58 1017.1
20260905164527 95 85 0.9 2.6 0.00 0.00 0.00 60 1017.1
20260905163552 94 278 0.9 1.7 0.00 0.00 0.00 61 1017.3